[[{"header":{"parameterUnit":"m.s-1","parameterCategory":1,"la1":30.2991,"la2":30.254,"lo1":-89.0895,"lo2":-89.0444,"dy":0.0017,"dx":0.0017,"nx":28,"ny":28,"refTime":"2025-09-02T09:00:00:Z","depth":0,"parameterNumber":2,"parameterNumberName":"U-component_of_WINDS"},"data":[0,0,0,0,0,0,0,0,0,0,0,0,0,0,0,0,0,0,0,0,0,0,0,0,0,0,0,0,0,0,0,0,0,0,0,0,0,0,0,0,0,0,0,0,0,0,0,0,0,0,0,0,0,0,0,0,0,0,-3.1994,-3.1995,0,-3.2056,-3.2057,-3.2058,-3.1951,-3.1948,-3.1944,-3.1941,-3.2007,-3.2012,-3.2017,0,0,0,0,0,0,0,0,0,0,0,0,0,-3.1785,-3.179,-3.1994,-3.1995,-3.1996,-3.2056,-3.2057,-3.2058,-3.1952,-3.1948,-3.1943,-3.1939,-3.2005,-3.2011,-3.2017,0,0,0,0,0,0,0,0,0,0,0,0,0,-3.1865,-3.1791,-3.1994,-3.195,-3.1947,-3.2056,-3.2057,-3.2058,-3.1953,-3.1947,-3.1942,-3.1937,-3.2003,-3.2011,-3.2018,-3.2174,0,0,-3.2042,-3.2045,0,0,0,0,0,0,0,0,-3.1861,-3.1873,-3.1956,-3.1953,-3.195,-3.199,-3.2008,-3.2097,-3.1954,-3.1951,-3.1941,-3.1934,-3.2006,-3.2013,-3.2037,-3.2178,-3.218,-3.2042,-3.2047,-3.205,-3.2053,0,0,0,0,0,0,0,-3.1855,-3.1869,-3.2019,-3.1957,-3.1953,-3.1928,-3.1933,-3.2024,-3.2008,-3.195,-3.1943,-3.1952,-3.2003,-3.203,-3.2038,-3.2181,-3.2042,-3.2049,-3.2054,-3.2057,-3.2455,-3.246,0,0,0,0,0,0,-3.1855,-3.1866,-3.2017,-3.2021,-3.1891,-3.1936,-3.1942,-3.1983,-3.2007,-3.2005,-3.1956,-3.1946,-3.2019,-3.2029,-3.204,-3.2225,-3.205,-3.2058,-3.2062,-3.2449,-3.2456,-3.2462,0,0,0,0,0,0,-3.1851,-3.1869,-3.2014,-3.1941,-3.1958,-3.1945,-3.1992,-3.1987,-3.2013,-3.2011,-3.2008,-3.1986,-3.2015,-3.2029,-3.2142,-3.2226,-3.2061,-3.2068,-3.2442,-3.2451,-3.2459,-3.2597,0,0,0,0,0,0,-3.1845,-3.1868,-3.1927,-3.1943,-3.1962,-3.2115,-3.1997,-3.1992,-3.2026,-3.2014,-3.2038,-3.2037,-3.2012,-3.2131,-3.215,-3.2233,-3.2074,-3.2434,-3.2446,-3.2456,-3.2585,-3.2609,-3.263,0,0,0,0,0,-3.1838,-3.1964,-3.1931,-3.195,-3.2035,-3.212,-3.2131,-3.2099,-3.2034,-3.2093,-3.2092,-3.2036,-3.2213,-3.2143,-3.2163,-3.2251,-3.2429,-3.2443,-3.2456,-3.2574,-3.2604,-3.263,0,0,0,0,0,0,-3.1958,-3.1965,-3.1928,-3.2063,-3.2092,-3.2102,-3.2176,-3.2132,-3.2181,-3.2167,-3.2126,-3.2133,-3.2255,-3.2264,-3.2186,-3.2404,-3.231,-3.2328,-3.2394,-3.2422,-3.2445,-3.244,-3.2081,0,0,0,0,0,-3.2,-3.2068,-3.2071,-3.2189,-3.2205,-3.2189,-3.2224,-3.2197,-3.2226,-3.2238,-3.2245,-3.2276,-3.2338,-3.238,-3.2438,-3.2585,-3.259,-3.2655,-3.2678,-3.2697,-3.2713,-3.2793,-3.2823,-3.2506,-3.2506,-3.2506,0,0,-3.2088,-3.21,-3.2146,-3.2213,-3.2233,-3.2305,-3.22,-3.228,-3.2334,-3.2251,-3.2358,-3.2364,-3.2396,-3.2527,-3.2585,-3.2539,-3.2802,-3.2714,-3.2729,-3.2735,-3.281,-3.284,-3.2867,-3.2515,-3.2514,-3.2512,0,0,-3.2285,-3.2301,-3.2401,-3.2423,-3.2453,-3.2441,-3.2466,-3.2483,-3.2484,-3.2591,-3.253,-3.2594,-3.2702,-3.2727,-3.2755,-3.2962,-3.2914,-3.2982,-3.3102,-3.318,-3.3205,-3.3227,-3.3303,-3.333,-3.2998,-3.2999,-3.2999,0,-3.2391,-3.2497,-3.2459,-3.2545,-3.2577,-3.2504,-3.2606,-3.2629,-3.2677,-3.2702,-3.2648,-3.2783,-3.2799,-3.2936,-3.2987,-3.3011,-3.3038,-3.298,-3.3204,-3.3226,-3.3246,-3.3318,-3.3346,-3.3007,-3.3006,-3.3005,-3.3004,0,-3.2626,-3.27,-3.2778,-3.2826,-3.2867,-3.2961,-3.2938,-3.2984,-3.2954,-3.2948,-3.3058,-3.3075,-3.3135,-3.3165,-3.3136,-3.3299,-3.3269,-3.3211,-3.3116,-3.3285,-3.3352,-3.3379,-3.3019,-3.3016,-3.3013,-3.3011,0,0,-3.2901,-3.2927,-3.2956,-3.2978,-3.3006,-3.3063,-3.3154,-3.3212,-3.3253,-3.3289,-3.3365,-3.3458,-3.3405,-3.3436,-3.3409,-3.3478,-3.3643,-3.3411,-3.3412,-3.3455,-3.3825,-3.387,-3.3902,-3.3611,-3.3616,-3.362,-3.3823,0,-3.3098,-3.3254,-3.3223,-3.3376,-3.3445,-3.3377,-3.3456,-3.3483,-3.348,-3.3539,-3.3535,-3.3603,-3.3526,-3.3545,-3.361,-3.361,-3.3717,-3.3594,-3.3683,-3.3686,-3.3678,-3.3937,-3.3984,-3.4175,-3.3849,-3.3853,-3.3856,0,-3.3349,-3.3394,-3.3554,-3.3572,-3.36,-3.3672,-3.3723,-3.3779,-3.3809,-3.3802,-3.3837,-3.3798,-3.3889,-3.3792,-3.3918,-3.3836,-3.387,-3.3875,-3.3882,-3.389,-3.3782,-3.3953,-3.4235,-3.4264,-3.3897,-3.3893,-3.389,0,-3.3535,-3.3636,-3.3745,-3.3765,-3.3788,-3.3841,-3.3853,-3.3877,-3.3914,-3.3959,-3.3983,-3.4039,-3.407,-3.4114,-3.4091,-3.4022,-3.4222,-3.4123,-3.422,-3.4221,-3.4266,-3.4264,-3.4559,-3.4287,-3.4286,-3.4286,-3.4285,0,-3.376,-3.3861,-3.3829,-3.3896,-3.4008,-3.3971,-3.4083,-3.4087,-3.4109,-3.4177,-3.4121,-3.4186,-3.4151,-3.4214,-3.4196,-3.4304,-3.4318,-3.4316,-3.4311,-3.4322,-3.4323,-3.4345,-3.4332,-3.4293,-3.4291,-3.429,-3.4289,0,-3.3987,-3.397,-3.4084,-3.4097,-3.4103,-3.4185,-3.4196,-3.426,-3.4252,-3.4339,-3.4357,-3.4346,-3.4417,-3.4398,-3.4475,-3.4463,-3.4601,-3.4577,-3.4591,-3.4586,-3.4685,-3.4676,-3.5005,-3.5047,-3.4746,-3.4749,-3.4752,0,-3.4132,-3.4208,-3.4229,-3.427,-3.4287,-3.4354,-3.4391,-3.4359,-3.44,-3.444,-3.4499,-3.4565,-3.4616,-3.4732,-3.4732,-3.4791,-3.477,-3.4881,-3.4779,-3.4788,-3.4774,-3.477,-3.4778,-3.4902,-3.4906,-3.4909,-3.4911,0,-3.4392,-3.4379,-3.4435,-3.449,-3.4536,-3.4577,-3.4613,-3.465,-3.462,-3.467,-3.4741,-3.4781,-3.486,-3.4926,-3.4981,-3.4994,-3.4949,-3.4943,-3.4969,-3.4982,-3.4987,-3.4987,-3.4648,-3.4936,-3.4933,-3.4932,-3.493,-3.4929,-3.4583,-3.4648,-3.4673,-3.4738,-3.4761,-3.4797,-3.4857,-3.4857,-3.4916,-3.4977,-3.4954,-3.5037,-3.5065,-3.5133,-3.5154,-3.5218,-3.5176,-3.5214,-3.5223,-3.5233,-3.5246,-3.4976,-3.5228,-3.5227,-3.5227,-3.5226,-3.5225,0,-3.4841,-3.4854,-3.4914,-3.4966,-3.5017,-3.4968,-3.5006,-3.5052,-3.5125,-3.5155,-3.5206,-3.5289,-3.5354,-3.5359,-3.542,-3.5471,-3.5452,-3.5488,-3.5485,-3.5489,-3.528,-3.5252,-3.5503,-3.5503,-3.5502,-3.5502,-3.5502,-3.5502,-3.4981,-3.5089,-3.508,-3.5199,-3.5211,-3.5291,-3.5317,-3.5349,-3.5373,-3.5468,-3.5521,-3.5523,-3.5544,-3.5605,-3.5663,-3.5663,-3.5689,-3.5734,-3.5726,-3.5531,-3.5503,-3.5477,-3.5451,-3.5739,-3.5739,-3.5929,-3.5931,-3.5933]},{"header":{"parameterUnit":"m.s-1","parameterCategory":1,"la1":30.2991,"la2":30.254,"lo1":-89.0895,"lo2":-89.0444,"dy":0.0017,"dx":0.0017,"nx":28,"ny":28,"refTime":"2025-09-02T09:00:00:Z","depth":0,"parameterNumber":3,"parameterNumberName":"V-component_of_WINDS"},"data":[0,0,0,0,0,0,0,0,0,0,0,0,0,0,0,0,0,0,0,0,0,0,0,0,0,0,0,0,0,0,0,0,0,0,0,0,0,0,0,0,0,0,0,0,0,0,0,0,0,0,0,0,0,0,0,0,0,0,-2.9207,-2.9207,0,-2.9172,-2.9171,-2.9171,-2.913,-2.9129,-2.9128,-2.9128,-2.9091,-2.909,-2.909,0,0,0,0,0,0,0,0,0,0,0,0,0,-2.9236,-2.9236,-2.9207,-2.9207,-2.9206,-2.9172,-2.9171,-2.9171,-2.913,-2.9129,-2.9128,-2.9127,-2.9091,-2.909,-2.909,0,0,0,0,0,0,0,0,0,0,0,0,0,-2.9214,-2.9235,-2.9207,-2.9182,-2.9179,-2.9172,-2.9171,-2.9171,-2.913,-2.9129,-2.9128,-2.9127,-2.9091,-2.909,-2.909,-2.9105,0,0,-2.9088,-2.9088,0,0,0,0,0,0,0,0,-2.9216,-2.9213,-2.9186,-2.9183,-2.918,-2.9154,-2.9168,-2.9149,-2.913,-2.9149,-2.9128,-2.9127,-2.9112,-2.911,-2.9105,-2.9103,-2.9102,-2.9088,-2.9087,-2.9087,-2.9087,0,0,0,0,0,0,0,-2.9217,-2.9215,-2.9193,-2.9185,-2.9182,-2.9171,-2.9167,-2.9164,-2.9136,-2.9147,-2.9144,-2.914,-2.9111,-2.9106,-2.9104,-2.9101,-2.9088,-2.9087,-2.9087,-2.9087,-2.9106,-2.9106,0,0,0,0,0,0,-2.9223,-2.9216,-2.9194,-2.9192,-2.9196,-2.9171,-2.9167,-2.9164,-2.9136,-2.9131,-2.9141,-2.9138,-2.9108,-2.9105,-2.9103,-2.9116,-2.9087,-2.9087,-2.9086,-2.9105,-2.9106,-2.9107,0,0,0,0,0,0,-2.9224,-2.9221,-2.9196,-2.9203,-2.9199,-2.9172,-2.9169,-2.9163,-2.9159,-2.9132,-2.9126,-2.9142,-2.9107,-2.9104,-2.9104,-2.9114,-2.9086,-2.9086,-2.9104,-2.9105,-2.9106,-2.9145,0,0,0,0,0,0,-2.9225,-2.9222,-2.9228,-2.9204,-2.9199,-2.9199,-2.9169,-2.9163,-2.9158,-2.9154,-2.9131,-2.9126,-2.9106,-2.9105,-2.9103,-2.9113,-2.9085,-2.9103,-2.9104,-2.9106,-2.9143,-2.9147,-2.9152,0,0,0,0,0,-2.9226,-2.9241,-2.9229,-2.9226,-2.9206,-2.9199,-2.9196,-2.9173,-2.9159,-2.9164,-2.9146,-2.9127,-2.9114,-2.9105,-2.9103,-2.9113,-2.9102,-2.9104,-2.9106,-2.9141,-2.9147,-2.9151,0,0,0,0,0,0,-2.9268,-2.9237,-2.9223,-2.9231,-2.9218,-2.9192,-2.9199,-2.9181,-2.9171,-2.9168,-2.9139,-2.9134,-2.9137,-2.9125,-2.9116,-2.9124,-2.9105,-2.9106,-2.9132,-2.9137,-2.9142,-2.9144,-2.9085,0,0,0,0,0,-2.9278,-2.9275,-2.9249,-2.9258,-2.9252,-2.9227,-2.9223,-2.9206,-2.9191,-2.9185,-2.9167,-2.9153,-2.9145,-2.9141,-2.9133,-2.9141,-2.9134,-2.9146,-2.9151,-2.9154,-2.9156,-2.9156,-2.9161,-2.9113,-2.9113,-2.9113,0,0,-2.9299,-2.9282,-2.9282,-2.9266,-2.9254,-2.925,-2.9222,-2.9221,-2.9217,-2.9184,-2.9183,-2.9169,-2.9151,-2.9155,-2.9156,-2.9145,-2.9167,-2.9157,-2.916,-2.9159,-2.9159,-2.9163,-2.9167,-2.9114,-2.9114,-2.9114,0,0,-2.9335,-2.9323,-2.9328,-2.9316,-2.9297,-2.928,-2.9281,-2.9258,-2.9247,-2.9245,-2.922,-2.9215,-2.9203,-2.919,-2.9182,-2.9211,-2.9191,-2.9209,-2.9232,-2.9233,-2.9236,-2.924,-2.9247,-2.9251,-2.9211,-2.9211,-2.9211,0,-2.9363,-2.9358,-2.9333,-2.9332,-2.9325,-2.9294,-2.9298,-2.9288,-2.9268,-2.9262,-2.9251,-2.9233,-2.9219,-2.9218,-2.9225,-2.922,-2.9219,-2.9211,-2.9238,-2.9241,-2.9243,-2.9251,-2.9254,-2.9213,-2.9212,-2.9212,-2.9212,0,-2.9392,-2.9389,-2.9395,-2.9375,-2.9369,-2.9371,-2.9345,-2.9341,-2.9324,-2.9307,-2.9304,-2.9285,-2.9272,-2.927,-2.9254,-2.9266,-2.9259,-2.9244,-2.9223,-2.9251,-2.9257,-2.9259,-2.9216,-2.9215,-2.9214,-2.9214,0,0,-2.9454,-2.942,-2.9422,-2.9412,-2.9388,-2.9384,-2.9384,-2.937,-2.9366,-2.9353,-2.935,-2.9339,-2.9323,-2.9314,-2.9296,-2.9297,-2.9318,-2.9281,-2.928,-2.9286,-2.9326,-2.9337,-2.9341,-2.9305,-2.9305,-2.9306,-2.9327,0,-2.9485,-2.9482,-2.9458,-2.9462,-2.9457,-2.9427,-2.9426,-2.941,-2.9394,-2.9387,-2.9368,-2.936,-2.9342,-2.9335,-2.9335,-2.9315,-2.9325,-2.9314,-2.93,-2.93,-2.9304,-2.9345,-2.9357,-2.9378,-2.9329,-2.933,-2.933,0,-2.952,-2.9508,-2.9511,-2.9485,-2.9482,-2.9481,-2.9465,-2.9459,-2.944,-2.9428,-2.9417,-2.9396,-2.9391,-2.9372,-2.9364,-2.9357,-2.935,-2.9339,-2.9339,-2.9336,-2.9316,-2.9341,-2.9385,-2.9387,-2.9334,-2.9334,-2.9334,0,-2.9562,-2.9547,-2.9546,-2.9538,-2.9508,-2.9508,-2.9496,-2.9476,-2.9468,-2.9454,-2.9448,-2.9434,-2.9425,-2.9414,-2.9389,-2.9378,-2.9383,-2.9363,-2.9371,-2.9371,-2.9373,-2.9373,-2.9414,-2.9371,-2.9371,-2.9371,-2.9371,0,-2.9598,-2.96,-2.9564,-2.9563,-2.9564,-2.9536,-2.9538,-2.9522,-2.9504,-2.9498,-2.9472,-2.9467,-2.9435,-2.9426,-2.9406,-2.9401,-2.9398,-2.9387,-2.9381,-2.9388,-2.9389,-2.9382,-2.938,-2.9371,-2.9371,-2.9371,-2.9371,0,-2.9645,-2.9621,-2.9618,-2.9589,-2.9582,-2.9584,-2.9559,-2.9556,-2.9537,-2.953,-2.9527,-2.9498,-2.9485,-2.9459,-2.944,-2.9427,-2.9425,-2.9417,-2.9432,-2.9428,-2.9437,-2.9436,-2.9474,-2.9477,-2.9434,-2.9434,-2.9435,0,-2.9669,-2.967,-2.9641,-2.9635,-2.9624,-2.9615,-2.9607,-2.9579,-2.9571,-2.9548,-2.9547,-2.9533,-2.9519,-2.9501,-2.9477,-2.9461,-2.9451,-2.9465,-2.9448,-2.9454,-2.9448,-2.9448,-2.9447,-2.9469,-2.9469,-2.947,-2.947,0,-2.9712,-2.97,-2.9689,-2.9674,-2.9664,-2.9651,-2.9636,-2.9633,-2.9601,-2.9593,-2.958,-2.9569,-2.9549,-2.9534,-2.9514,-2.9499,-2.9479,-2.9476,-2.9476,-2.9483,-2.9491,-2.9485,-2.944,-2.9475,-2.9474,-2.9474,-2.9474,-2.9474,-2.9747,-2.9745,-2.9724,-2.9712,-2.9698,-2.9684,-2.9679,-2.966,-2.9648,-2.9629,-2.9613,-2.9601,-2.9579,-2.955,-2.9537,-2.9526,-2.9516,-2.9518,-2.9518,-2.9518,-2.952,-2.9494,-2.9522,-2.9522,-2.9522,-2.9522,-2.9522,0,-2.9787,-2.9772,-2.9761,-2.9741,-2.9731,-2.9713,-2.9694,-2.9687,-2.9677,-2.9658,-2.9645,-2.9629,-2.9613,-2.9588,-2.957,-2.9566,-2.9555,-2.9562,-2.9561,-2.9557,-2.9531,-2.9531,-2.957,-2.957,-2.957,-2.957,-2.957,-2.957,-2.9807,-2.9803,-2.9787,-2.9775,-2.9759,-2.9747,-2.9737,-2.9723,-2.9708,-2.9691,-2.9678,-2.9662,-2.964,-2.962,-2.9604,-2.9596,-2.959,-2.9599,-2.9589,-2.9564,-2.956,-2.9555,-2.9555,-2.9599,-2.9599,-2.9616,-2.9616,-2.9616]}]]